Wind_Speed
34 32 26 30 31 30 29 29 27 25 30 32 31 29 23 28 26 27 26 26 27 29 29 27 27 26 25 27 26 28 31 36 39 42 43 43 44 45 46 47 48 49 49 49
32 30 30 31 32 31 30 32 30 31 34 34 30 29 24 24 24 26 25 28 32 32 31 28 28 29 28 32 32 30 33 35 38 40 41 43 43 46 46 49 50 51 52 53
35 34 30 31 32 33 34 34 35 38 36 33 31 30 26 25 25 26 28 30 32 32 30 31 30 30 31 34 36 37 37 37 40 41 44 46 48 51 53 54 56 58 59 59
37 32 33 35 36 37 40 37 38 38 36 34 34 36 27 25 26 26 29 30 31 33 33 31 30 33 35 38 42 45 46 42 43 47 51 55 56 55 59 61 62 64 65 62
37 37 36 37 36 38 38 37 37 38 38 38 34 37 37 31 25 29 30 31 32 32 33 35 38 42 43 44 47 49 50 51 53 57 59 61 60 58 59 62 64 66 66 66
41 41 39 38 36 37 37 38 40 41 42 42 35 38 44 39 35 32 30 28 28 34 38 41 43 46 48 48 50 53 55 58 59 59 59 58 58 59 60 62 65 66 67 68
42 44 43 40 37 37 38 40 42 44 43 43 40 42 40 40 38 35 34 35 38 43 46 48 49 50 50 50 52 54 58 60 60 60 62 60 61 62 62 64 66 69 71 73
45 43 41 39 37 39 40 41 42 42 44 45 41 40 41 40 41 41 40 43 44 46 47 49 51 52 53 55 56 58 61 63 63 63 63 63 64 65 66 68 69 71 74 76
47 46 42 41 41 42 42 42 39 43 45 43 42 41 41 43 46 48 45 46 50 49 51 54 56 57 58 59 61 62 63 66 68 68 69 69 68 67 69 70 71 72 73 73
45 45 43 43 43 45 45 43 45 45 45 45 47 46 48 50 52 50 48 48 51 54 55 56 58 60 62 61 64 64 66 67 68 70 71 70 68 68 69 71 74 74 74 74
44 46 46 47 47 45 46 47 47 46 49 49 51 54 57 56 54 53 52 52 53 55 61 64 62 60 60 62 65 64 68 70 73 73 73 71 69 69 70 70 71 72 73 74
44 49 50 50 50 48 50 50 49 50 49 50 55 59 61 56 55 54 54 53 56 61 63 63 61 61 62 65 66 68 71 72 72 72 71 69 69 69 70 71 72 74 75 77
44 49 51 52 52 52 49 49 49 49 51 55 58 62 58 60 57 54 53 61 65 65 63 60 63 64 66 68 70 71 72 73 72 71 71 70 70 72 72 74 75 77 78 79
50 51 55 55 54 52 52 53 54 57 57 58 62 59 61 56 55 57 62 65 67 64 64 64 65 66 69 71 72 73 73 73 73 73 70 70 72 73 75 76 77 78 80 82
58 56 61 60 57 57 58 59 61 63 61 62 57 61 56 53 53 57 61 64 65 65 65 67 68 70 73 73 73 73 73 72 71 71 72 73 75 76 77 77 78 80 81 83
64 61 65 64 64 66 64 64 67 69 62 61 59 62 56 57 58 60 66 67 65 65 68 70 71 73 72 71 70 70 69 71 72 72 73 75 75 76 77 79 80 81 82 84
65 66 64 67 68 71 72 71 68 63 60 58 61 57 61 60 61 64 63 65 67 70 70 71 71 70 68 67 67 67 71 72 73 73 74 75 76 77 79 80 81 82 81 77
67 61 65 70 72 75 72 68 67 63 61 56 59 62 63 62 64 65 67 69 71 69 70 70 69 67 65 66 68 71 72 73 75 75 76 76 78 79 80 80 79 74 69 66
57 63 67 65 64 66 69 68 64 62 58 61 61 58 64 67 68 69 69 71 72 70 70 69 67 66 68 69 71 73 74 76 76 77 78 78 79 79 78 73 68 65 62 60
66 66 66 69 69 70 65 62 60 61 62 62 63 66 68 70 70 66 71 71 69 68 68 68 68 67 68 71 73 74 76 77 78 77 77 76 74 70 66 63 61 60 59 59
57 59 60 60 64 69 64 66 67 69 66 68 70 70 68 68 68 68 67 65 64 64 65 65 66 68 69 71 74 75 76 77 77 75 73 69 64 61 59 59 58 58 59 60
57 58 59 65 68 70 65 67 69 70 70 68 67 66 64 65 64 63 62 62 64 65 67 67 68 70 73 75 76 75 72 70 69 67 64 60 58 58 58 58 59 60 61 62
63 62 65 69 70 69 69 69 66 64 64 63 63 63 61 60 59 61 62 64 67 68 69 69 71 70 67 67 66 66 65 64 62 59 58 58 58 58 59 60 61 62 63 62
60 62 67 67 68 67 67 61 59 61 61 61 60 58 59 58 59 61 65 69 68 68 69 68 63 61 61 62 61 60 58 55 56 57 57 57 58 59 60 61 62 61 61 61
55 60 63 62 66 67 59 57 59 60 60 59 60 61 60 61 63 65 68 69 70 66 61 60 59 59 59 58 56 55 54 54 55 56 57 57 57 58 59 60 61 61 62 63
59 68 71 70 65 59 56 56 56 58 58 59 60 61 61 63 65 69 69 66 61 58 57 58 58 57 54 52 52 52 53 53 54 54 53 54 56 56 57 60 63 64 63 62
Wind_Direction
267 269 273 266 268 270 268 272 277 279 279 278 278 277 275 276 275 274 277 287 286 285 281 277 275 276 282 285 289 300 300 297 298 298 295 293 291 288 288 286 284 284 281 279
266 266 266 267 268 269 272 275 281 279 280 275 274 275 275 274 276 277 284 289 291 289 289 285 284 283 289 289 283 283 284 287 287 285 285 286 285 286 285 285 283 280 276 275
265 265 263 267 269 272 273 278 279 278 279 275 274 275 274 277 278 277 283 289 287 283 280 278 280 283 285 284 281 279 277 280 278 278 280 281 282 281 279 278 277 277 275 273
263 264 268 267 269 270 269 274 275 274 272 271 273 283 275 278 280 281 284 285 282 280 277 280 282 285 289 288 289 289 285 276 273 276 280 282 281 279 276 274 275 276 276 274
266 267 269 272 269 267 270 268 267 266 267 270 272 279 283 280 275 277 282 284 284 283 288 292 293 294 291 289 288 287 284 282 279 280 283 283 281 279 276 275 274 273 273 274
266 267 271 271 267 265 264 263 263 264 268 272 278 279 279 286 284 282 282 281 280 281 284 285 285 283 284 284 283 284 283 282 282 284 284 283 283 281 278 276 275 275 274 274
266 265 267 267 262 262 262 263 265 268 272 277 282 282 286 288 288 286 289 291 294 293 292 290 287 285 282 282 283 285 286 285 286 287 285 284 281 280 279 277 275 274 274 275
265 265 263 260 258 257 257 259 264 272 275 278 281 285 294 291 289 289 294 295 295 293 293 290 286 285 287 287 288 288 289 289 288 287 286 285 283 280 278 277 276 275 275 275
264 264 260 258 256 255 259 261 263 266 269 274 282 286 289 288 286 287 292 295 295 295 293 291 289 287 286 285 286 287 287 287 287 287 286 285 285 284 283 283 281 279 277 279
261 260 256 253 252 256 259 262 262 263 268 273 278 284 286 284 283 288 292 294 294 292 290 288 288 287 285 287 286 288 289 289 288 287 287 286 286 283 280 279 280 283 283 284
258 256 255 253 255 259 260 261 262 265 270 277 282 283 283 283 289 292 295 293 292 292 291 289 284 285 288 287 286 288 288 288 287 287 287 287 287 287 287 287 287 286 286 285
253 253 254 257 259 260 261 263 267 271 279 279 278 283 283 287 292 292 290 292 291 291 289 288 288 289 287 285 287 288 288 289 289 288 289 289 289 289 287 287 286 285 285 285
258 253 254 256 259 262 269 271 271 269 272 277 276 285 288 289 289 287 288 288 287 287 287 289 290 287 287 287 288 289 289 290 291 290 289 289 288 287 287 286 287 287 288 288
260 256 254 261 267 268 268 269 268 267 270 276 279 284 286 286 286 287 286 288 291 289 290 291 288 286 286 287 288 289 289 290 290 290 288 287 287 287 288 289 289 289 289 289
261 261 258 264 267 270 272 270 268 270 271 269 283 282 284 284 285 284 287 287 286 288 287 284 286 287 286 288 289 290 290 290 288 288 288 288 289 290 290 290 290 290 292 293
262 263 262 267 267 267 269 271 271 270 276 279 281 280 284 284 284 288 287 284 286 286 285 287 287 286 288 290 290 289 288 286 287 288 289 289 289 289 291 292 293 294 294 293
261 263 266 259 262 261 264 274 272 274 275 279 277 283 281 283 284 285 284 286 288 286 287 287 286 288 289 288 288 288 287 287 288 288 288 289 291 293 293 294 293 293 293 292
257 253 249 251 253 256 266 270 270 271 272 276 280 280 282 284 284 285 287 287 287 287 287 286 287 288 289 288 287 287 286 287 288 290 292 293 294 294 294 293 293 293 292 292
246 249 249 250 256 262 264 270 271 270 272 276 278 280 281 283 285 287 287 287 287 287 286 287 288 288 288 288 287 287 288 290 292 293 294 295 294 293 293 292 292 292 292 292
250 247 249 256 261 267 272 270 268 268 267 272 278 278 281 284 286 285 287 287 284 284 285 286 287 287 287 288 289 290 291 292 294 294 295 293 292 292 291 292 292 293 292 292
251 254 259 263 265 267 270 266 263 266 274 273 277 282 282 283 285 285 282 283 285 286 287 287 288 289 291 292 292 293 293 295 295 294 292 293 292 291 292 292 291 291 290 291
262 261 260 259 260 263 266 265 268 273 277 278 279 281 284 284 282 281 283 285 286 287 287 288 290 292 293 295 295 295 296 294 293 293 293 292 292 292 291 291 291 291 291 291
264 264 260 258 262 266 269 274 278 280 279 279 280 280 279 279 279 281 283 284 285 286 288 292 294 296 297 297 297 296 295 295 295 293 293 294 294 292 291 291 291 292 293 294
259 262 262 264 267 273 277 278 275 273 274 277 278 279 279 281 284 285 286 287 290 292 295 297 298 299 299 297 296 295 295 294 293 294 294 293 293 294 294 293 294 296 296 296
262 265 268 272 276 278 272 269 269 271 276 279 280 280 284 285 286 286 289 292 294 296 298 299 298 299 299 298 297 295 294 294 295 295 294 294 295 295 296 296 297 296 297 297
272 270 272 279 279 273 270 268 273 277 279 279 280 283 285 288 290 291 294 294 296 298 298 298 299 300 298 295 292 292 293 293 293 294 295 297 298 299 299 299 298 297 296 296
Height
5823 5825 5828 5825 5826 5827 5828 5829 5831 5832 5828 5828 5828 5828 5833 5829 5830 5829 5828 5829 5828 5826 5825 5823 5823 5821 5820 5819 5817 5817 5817 5817 5816 5815 5813 5811 5808 5806 5804 5802 5799 5797 5794 5793
5815 5817 5818 5818 5819 5819 5820 5819 5822 5821 5820 5819 5820 5821 5824 5823 5823 5822 5823 5823 5822 5821 5821 5819 5818 5816 5814 5813 5810 5807 5805 5804 5804 5802 5801 5798 5797 5795 5792 5790 5788 5785 5782 5780
5805 5807 5810 5810 5810 5811 5810 5812 5812 5811 5811 5811 5810 5811 5814 5814 5813 5813 5813 5812 5813 5813 5811 5810 5808 5806 5804 5803 5801 5798 5795 5794 5793 5792 5790 5788 5785 5783 5780 5776 5774 5771 5768 5766
5795 5800 5801 5801 5801 5803 5800 5804 5802 5802 5801 5802 5802 5798 5805 5806 5804 5804 5803 5803 5802 5802 5801 5799 5798 5795 5793 5792 5791 5790 5789 5783 5779 5778 5777 5775 5772 5769 5766 5764 5760 5758 5755 5752
5789 5788 5791 5791 5793 5791 5793 5793 5793 5792 5791 5790 5794 5791 5788 5791 5796 5794 5793 5793 5794 5794 5793 5791 5789 5787 5784 5781 5780 5779 5776 5772 5769 5766 5763 5760 5757 5753 5750 5748 5746 5742 5740 5737
5778 5778 5779 5781 5781 5781 5783 5783 5783 5782 5782 5779 5786 5782 5776 5782 5784 5785 5785 5784 5783 5782 5781 5779 5777 5774 5772 5769 5766 5763 5761 5758 5755 5752 5748 5745 5742 5739 5735 5732 5729 5727 5723 5720
5768 5769 5769 5769 5771 5772 5772 5773 5773 5773 5773 5772 5773 5772 5774 5772 5772 5772 5775 5776 5775 5773 5771 5769 5765 5759 5755 5753 5751 5749 5747 5744 5740 5736 5732 5729 5726 5723 5720 5717 5713 5710 5706 5703
5756 5758 5758 5760 5761 5761 5761 5762 5763 5762 5761 5761 5761 5759 5762 5763 5763 5762 5761 5762 5761 5759 5758 5754 5749 5746 5743 5740 5736 5732 5729 5726 5723 5719 5716 5712 5709 5706 5703 5699 5696 5693 5689 5685
5743 5745 5747 5748 5749 5751 5751 5751 5754 5751 5750 5749 5750 5750 5751 5750 5749 5750 5751 5750 5749 5747 5744 5740 5736 5732 5729 5725 5721 5717 5714 5711 5707 5703 5699 5695 5691 5687 5684 5680 5677 5674 5671 5668
5730 5733 5735 5737 5738 5738 5740 5743 5740 5738 5739 5738 5738 5738 5736 5736 5736 5739 5739 5738 5737 5734 5728 5725 5722 5718 5715 5710 5706 5701 5698 5695 5692 5687 5683 5678 5674 5670 5667 5664 5660 5657 5653 5650
5719 5721 5724 5725 5726 5730 5730 5728 5728 5729 5726 5727 5728 5726 5722 5721 5725 5726 5725 5723 5720 5717 5712 5710 5706 5703 5699 5694 5690 5685 5681 5678 5674 5669 5665 5660 5656 5652 5648 5644 5640 5636 5632 5628
5708 5708 5710 5712 5714 5715 5714 5715 5717 5715 5718 5717 5714 5715 5710 5712 5713 5712 5709 5706 5702 5698 5695 5692 5688 5685 5680 5677 5672 5667 5664 5660 5655 5651 5647 5642 5638 5633 5628 5625 5621 5617 5613 5608
5697 5696 5698 5699 5700 5701 5704 5706 5705 5703 5702 5701 5701 5701 5700 5699 5699 5696 5694 5690 5686 5682 5679 5676 5673 5669 5665 5661 5655 5650 5646 5641 5637 5634 5629 5625 5620 5614 5609 5604 5600 5595 5591 5586
5682 5684 5684 5686 5689 5690 5689 5691 5689 5687 5685 5686 5683 5690 5685 5686 5685 5682 5677 5672 5669 5666 5664 5662 5657 5653 5648 5642 5637 5633 5628 5623 5620 5615 5610 5605 5600 5595 5590 5585 5579 5574 5569 5563
5666 5669 5669 5671 5673 5672 5673 5674 5673 5671 5671 5666 5676 5671 5674 5673 5669 5665 5662 5658 5653 5651 5648 5643 5639 5635 5629 5623 5618 5614 5610 5605 5600 5596 5591 5585 5580 5576 5570 5564 5559 5553 5547 5540
5650 5651 5654 5654 5655 5654 5654 5657 5654 5652 5655 5654 5656 5655 5659 5654 5650 5650 5646 5639 5638 5635 5630 5625 5621 5615 5610 5606 5601 5597 5592 5585 5581 5577 5572 5566 5560 5555 5550 5544 5538 5532 5525 5518
5633 5635 5637 5634 5638 5638 5636 5642 5641 5641 5641 5642 5636 5645 5637 5637 5635 5631 5628 5623 5621 5617 5612 5607 5601 5597 5592 5588 5585 5580 5573 5567 5563 5558 5553 5547 5541 5534 5528 5522 5515 5509 5502 5495
5618 5620 5621 5618 5619 5616 5625 5628 5625 5627 5630 5625 5622 5623 5621 5618 5615 5614 5611 5607 5602 5599 5593 5588 5583 5579 5575 5571 5567 5562 5556 5549 5543 5539 5532 5526 5520 5513 5505 5499 5492 5486 5481 5475
5602 5604 5603 5602 5601 5605 5609 5612 5612 5607 5613 5607 5604 5606 5601 5598 5597 5599 5594 5588 5583 5578 5573 5570 5566 5562 5558 5554 5549 5543 5536 5529 5523 5518 5511 5504 5498 5490 5483 5477 5471 5466 5462 5457
5587 5588 5589 5586 5585 5586 5598 5596 5592 5587 5591 5592 5588 5585 5584 5581 5578 5577 5572 5568 5564 5560 5555 5552 5549 5545 5541 5534 5529 5524 5517 5509 5502 5495 5490 5482 5475 5469 5463 5459 5454 5449 5445 5441
5574 5574 5573 5572 5570 5569 5578 5577 5572 5567 5577 5572 5570 5568 5565 5564 5561 5556 5551 5548 5545 5541 5537 5535 5531 5527 5521 5515 5508 5503 5495 5489 5482 5475 5468 5462 5457 5452 5447 5442 5438 5434 5429 5424
5559 5560 5559 5557 5553 5551 5559 5554 5553 5549 5546 5549 5550 5549 5549 5546 5542 5538 5535 5531 5527 5524 5520 5517 5514 5509 5502 5495 5487 5479 5475 5467 5462 5455 5450 5446 5441 5437 5432 5427 5422 5417 5412 5408
5542 5546 5544 5544 5542 5538 5535 5532 5528 5525 5524 5524 5529 5530 5530 5528 5525 5521 5518 5514 5510 5507 5503 5498 5493 5488 5481 5474 5468 5462 5455 5450 5445 5439 5435 5430 5426 5421 5416 5411 5406 5401 5395 5390
5527 5531 5527 5526 5526 5521 5514 5507 5504 5502 5503 5508 5508 5509 5508 5510 5509 5505 5501 5495 5493 5487 5482 5476 5471 5468 5463 5456 5451 5445 5440 5435 5430 5425 5420 5415 5410 5406 5401 5395 5389 5384 5378 5372
5516 5515 5514 5511 5506 5498 5492 5486 5481 5484 5488 5491 5489 5488 5490 5490 5489 5486 5484 5477 5471 5467 5462 5458 5453 5449 5445 5438 5433 5429 5425 5420 5415 5411 5406 5400 5395 5389 5384 5378 5372 5366 5360 5355
5504 5499 5495 5487 5482 5473 5472 5470 5470 5469 5472 5471 5470 5471 5471 5470 5469 5464 5464 5458 5453 5449 5444 5441 5436 5431 5427 5422 5418 5414 5410 5405 5401 5396 5391 5386 5380 5374 5368 5362 5355 5348 5343 5338